TVS456P OERK-LKPR

Flight info

Callsign TVS456P
Flight time 5h 26m
Altitude 40000
Route LONIB T503 OVANO L768 FIRAS R655 KTN R785 NIKAS L619 VESAR UL620 OSVEL UQ23 OSDAN UQ26 TUDBU DCT GOXGE DCT ERGOM DCT LALES DCT KATQA DCT TUMKA DCT VLM
Aircraft B738/M-SDFGHIJ1LORVWXY/LB1

Departure

Time 2026-05-05 15:30
Airport King Khalid International Airport (OERK)

Arrival

Time 2026-05-05 20:56
Airport Václav Havel Airport Prague (LKPR)
Time Latitude Longitude Altitude Speed Heading
2026-05-05 14:44 24.97461 46.69569 2042 ft 0 kts 240°
2026-05-05 15:16 24.97473 46.69593 2065 ft 4 kts 240°
2026-05-05 15:16 24.97487 46.69618 2062 ft 4 kts 240°
2026-05-05 15:16 24.97499 46.69641 2061 ft 3 kts 239°
2026-05-05 15:16 24.97515 46.69660 2061 ft 4 kts 192°
2026-05-05 15:17 24.97538 46.69656 2064 ft 4 kts 151°
2026-05-05 15:17 24.97547 46.69650 2061 ft 0 kts 150°
2026-05-05 15:20 24.97544 46.69652 2063 ft 2 kts 150°
2026-05-05 15:21 24.97515 46.69670 2063 ft 9 kts 150°
2026-05-05 15:21 24.97451 46.69713 2058 ft 10 kts 137°
2026-05-05 15:21 24.97447 46.69783 2061 ft 10 kts 60°
2026-05-05 15:21 24.97484 46.69855 2060 ft 14 kts 60°
2026-05-05 15:22 24.97520 46.69945 2057 ft 10 kts 95°
2026-05-05 15:22 24.97471 46.69997 2057 ft 10 kts 150°
2026-05-05 15:22 24.97395 46.70044 2060 ft 16 kts 150°
2026-05-05 15:22 24.97272 46.70122 2057 ft 24 kts 149°
2026-05-05 15:23 24.97109 46.70226 2057 ft 27 kts 150°
2026-05-05 15:23 24.96948 46.70328 2062 ft 26 kts 150°
2026-05-05 15:23 24.96799 46.70423 2057 ft 24 kts 150°
2026-05-05 15:23 24.96659 46.70512 2060 ft 23 kts 150°
2026-05-05 15:24 24.96507 46.70607 2060 ft 28 kts 150°
2026-05-05 15:24 24.96331 46.70717 2062 ft 28 kts 150°
2026-05-05 15:24 24.96173 46.70816 2059 ft 25 kts 150°
2026-05-05 15:24 24.96024 46.70907 2062 ft 23 kts 150°
2026-05-05 15:25 24.95886 46.70994 2061 ft 23 kts 150°
2026-05-05 15:25 24.95751 46.71080 2060 ft 23 kts 149°
2026-05-05 15:25 24.95603 46.71175 2061 ft 27 kts 150°
2026-05-05 15:25 24.95434 46.71281 2062 ft 28 kts 150°
2026-05-05 15:26 24.95265 46.71387 2065 ft 27 kts 150°
2026-05-05 15:26 24.95107 46.71487 2064 ft 25 kts 150°
2026-05-05 15:26 24.94961 46.71580 2064 ft 23 kts 150°
2026-05-05 15:26 24.94822 46.71668 2060 ft 24 kts 150°
2026-05-05 15:27 24.94665 46.71768 2061 ft 28 kts 150°
2026-05-05 15:27 24.94499 46.71873 2060 ft 27 kts 150°
2026-05-05 15:27 24.94352 46.71965 2063 ft 17 kts 150°
2026-05-05 15:27 24.94298 46.72026 2060 ft 11 kts 103°
2026-05-05 15:28 24.94323 46.72104 2058 ft 12 kts 59°
2026-05-05 15:28 24.94372 46.72190 2053 ft 15 kts 51°
2026-05-05 15:28 24.94455 46.72222 2052 ft 13 kts
2026-05-05 15:28 24.94510 46.72210 2055 ft 0 kts 328°
2026-05-05 15:29 24.94596 46.72153 2052 ft 43 kts 330°
2026-05-05 15:29 24.95069 46.71855 2050 ft 111 kts 330°
2026-05-05 15:29 24.95911 46.71327 2051 ft 164 kts 330°
2026-05-05 15:30 24.97000 46.70636 2371 ft 182 kts 329°
2026-05-05 15:30 24.98067 46.69947 3195 ft 179 kts 332°
2026-05-05 15:30 24.99215 46.69228 3446 ft 201 kts 332°
2026-05-05 15:30 25.00491 46.68426 3588 ft 221 kts 331°
2026-05-05 15:31 25.01877 46.67547 3738 ft 237 kts 330°
2026-05-05 15:31 25.03336 46.66625 4073 ft 244 kts 329°
2026-05-05 15:31 25.04849 46.65666 4417 ft 261 kts 327°
2026-05-05 15:31 25.06418 46.64577 4924 ft 270 kts 326°
2026-05-05 15:32 25.08003 46.63437 5553 ft 272 kts 326°
2026-05-05 15:32 25.09605 46.62284 6190 ft 279 kts 326°
2026-05-05 15:32 25.11251 46.61096 6826 ft 282 kts 326°
2026-05-05 15:32 25.12899 46.59912 7555 ft 285 kts 326°
2026-05-05 15:33 25.14579 46.58707 8224 ft 291 kts 325°
2026-05-05 15:33 25.16287 46.57482 8964 ft 294 kts 325°
2026-05-05 15:33 25.17996 46.56258 9680 ft 299 kts 326°
2026-05-05 15:33 25.19756 46.54997 10332 ft 307 kts 325°
2026-05-05 15:34 25.21621 46.53661 10527 ft 332 kts 325°
2026-05-05 15:34 25.23606 46.52239 10929 ft 346 kts 325°
2026-05-05 15:34 25.25650 46.50778 11506 ft 353 kts 325°
2026-05-05 15:34 25.27717 46.49302 12281 ft 355 kts 325°
2026-05-05 15:35 25.29803 46.47810 13020 ft 360 kts 325°
2026-05-05 15:35 25.31915 46.46295 13751 ft 364 kts 324°
2026-05-05 15:35 25.34051 46.44762 14497 ft 367 kts 324°
2026-05-05 15:35 25.36195 46.43224 15307 ft 368 kts 323°
2026-05-05 15:36 25.38345 46.41679 16096 ft 370 kts 323°
2026-05-05 15:36 25.40513 46.40124 16863 ft 373 kts 323°
2026-05-05 15:36 25.42695 46.38557 17623 ft 376 kts 323°
2026-05-05 15:36 25.44906 46.36967 18340 ft 380 kts 323°
2026-05-05 15:37 25.47131 46.35367 18983 ft 383 kts 322°
2026-05-05 15:37 25.49241 46.33583 19614 ft 381 kts 310°
2026-05-05 15:37 25.50806 46.31258 20262 ft 375 kts 293°
2026-05-05 15:37 25.51671 46.28563 20927 ft 371 kts 277°
2026-05-05 15:38 25.51789 46.25731 21589 ft 368 kts 263°
2026-05-05 15:38 25.51256 46.22969 22212 ft 369 kts 248°
2026-05-05 15:38 25.49994 46.20493 22825 ft 371 kts 235°
2026-05-05 15:38 25.48475 46.18175 23413 ft 374 kts 239°
2026-05-05 15:39 25.47486 46.15505 23907 ft 378 kts 256°
2026-05-05 15:39 25.47296 46.12605 24502 ft 382 kts 272°
2026-05-05 15:39 25.47920 46.09734 25097 ft 389 kts 289°
2026-05-05 15:39 25.49335 46.07156 25636 ft 401 kts 305°
2026-05-05 15:40 25.51488 46.05119 26123 ft 416 kts 322°
2026-05-05 15:40 25.54173 46.03883 26554 ft 435 kts 341°
2026-05-05 15:40 25.57237 46.03368 27018 ft 437 kts 339°
2026-05-05 15:40 25.59922 46.02081 27379 ft 421 kts 317°
2026-05-05 15:41 25.62099 45.99983 27873 ft 414 kts 310°
2026-05-05 15:41 25.64196 45.97794 28336 ft 415 kts 309°
2026-05-05 15:41 25.66299 45.95592 28771 ft 417 kts 309°
2026-05-05 15:41 25.68421 45.93386 29199 ft 419 kts 309°
2026-05-05 15:42 25.70563 45.91183 29637 ft 421 kts 309°
2026-05-05 15:42 25.72723 45.88980 30024 ft 423 kts 310°
2026-05-05 15:42 25.74899 45.86772 30340 ft 425 kts 309°
2026-05-05 15:42 25.77089 45.84554 30637 ft 427 kts 309°
2026-05-05 15:43 25.79291 45.82327 30940 ft 430 kts 309°
2026-05-05 15:43 25.81504 45.80089 31246 ft 431 kts 309°
2026-05-05 15:43 25.83726 45.77841 31574 ft 432 kts 309°
2026-05-05 15:43 25.85945 45.75596 31993 ft 431 kts 309°
2026-05-05 15:44 25.88154 45.73361 32454 ft 428 kts 309°
2026-05-05 15:44 25.90349 45.71137 32900 ft 427 kts 308°
2026-05-05 15:44 25.92542 45.68913 33279 ft 426 kts 308°
2026-05-05 15:44 25.94733 45.66687 33654 ft 426 kts 308°
2026-05-05 15:45 25.96914 45.64471 34068 ft 424 kts 308°
2026-05-05 15:45 25.99084 45.62266 34459 ft 422 kts 308°
2026-05-05 15:45 26.01251 45.60062 34789 ft 422 kts 307°
2026-05-05 15:45 26.03414 45.57859 35097 ft 422 kts 307°
2026-05-05 15:46 26.05576 45.55657 35415 ft 421 kts 307°
2026-05-05 15:46 26.07733 45.53460 35766 ft 420 kts 307°
2026-05-05 15:46 26.09853 45.51299 36099 ft 419 kts 307°
2026-05-05 15:46 26.12000 45.49109 36406 ft 418 kts 307°
2026-05-05 15:47 26.14169 45.46896 36730 ft 417 kts 307°
2026-05-05 15:47 26.15587 45.45449 36945 ft 417 kts 307°
2026-05-05 15:47 26.18433 45.42527 37364 ft 415 kts 306°
2026-05-05 15:47 26.20530 45.40327 37667 ft 414 kts 306°
2026-05-05 15:48 26.21208 45.39611 37760 ft 414 kts 306°
2026-05-05 15:48 26.23129 45.37578 38037 ft 413 kts 306°
2026-05-05 15:48 26.25187 45.35400 38319 ft 413 kts 306°
2026-05-05 15:48 26.27271 45.33201 38591 ft 412 kts 306°
2026-05-05 15:49 26.29354 45.31005 38818 ft 412 kts 305°
2026-05-05 15:49 26.31439 45.28809 39017 ft 412 kts 306°
2026-05-05 15:49 26.33530 45.26615 39197 ft 413 kts 306°
2026-05-05 15:49 26.35625 45.24418 39398 ft 413 kts 306°
2026-05-05 15:50 26.37038 45.22937 39551 ft 413 kts 306°
2026-05-05 15:50 26.39804 45.20035 39824 ft 412 kts 306°
2026-05-05 15:50 26.41897 45.17834 39848 ft 415 kts 306°
2026-05-05 15:51 26.46107 45.13405 39857 ft 415 kts 306°
2026-05-05 15:51 26.50284 45.09012 39862 ft 410 kts 306°
2026-05-05 15:52 26.54418 45.04653 39858 ft 407 kts 305°
2026-05-05 15:52 26.58531 45.00312 39859 ft 405 kts 305°
2026-05-05 15:53 26.62630 44.95986 39862 ft 405 kts 305°
2026-05-05 15:53 26.66732 44.91655 39855 ft 406 kts 305°
2026-05-05 15:54 26.70851 44.87302 39862 ft 409 kts 305°
2026-05-05 15:54 26.74996 44.82917 39871 ft 412 kts 305°
2026-05-05 15:55 26.79166 44.78495 39865 ft 414 kts 305°
2026-05-05 15:55 26.83352 44.74036 39866 ft 416 kts 305°
2026-05-05 15:56 26.87557 44.69552 39863 ft 418 kts 305°
2026-05-05 15:56 26.91749 44.65078 39863 ft 420 kts 305°
2026-05-05 15:57 26.95979 44.60560 39861 ft 420 kts 305°
2026-05-05 15:57 27.00207 44.56042 39857 ft 420 kts 305°
2026-05-05 15:58 27.04430 44.51538 39860 ft 419 kts 304°
2026-05-05 15:58 27.07936 44.47798 39858 ft 418 kts 304°
2026-05-05 15:59 27.12131 44.43314 39868 ft 416 kts 304°
2026-05-05 15:59 27.16314 44.38839 39868 ft 415 kts 304°
2026-05-05 16:00 27.20481 44.34376 39860 ft 413 kts 304°
2026-05-05 16:00 27.24634 44.29919 39871 ft 412 kts 304°
2026-05-05 16:01 27.28774 44.25470 39873 ft 411 kts 304°
2026-05-05 16:01 27.32904 44.21026 39879 ft 411 kts 304°
2026-05-05 16:02 27.37030 44.16582 39886 ft 411 kts 304°
2026-05-05 16:02 27.41155 44.12134 39885 ft 411 kts 304°
2026-05-05 16:03 27.45283 44.07677 39888 ft 411 kts 304°
2026-05-05 16:03 27.49415 44.03210 39885 ft 412 kts 304°
2026-05-05 16:04 27.53568 43.98748 39896 ft 412 kts 304°
2026-05-05 16:04 27.57701 43.94258 39901 ft 413 kts 304°
2026-05-05 16:05 27.61842 43.89757 39904 ft 414 kts 304°
2026-05-05 16:05 27.66000 43.85242 39902 ft 415 kts 304°
2026-05-05 16:06 27.70161 43.80721 39908 ft 416 kts 304°
2026-05-05 16:06 27.74324 43.76193 39910 ft 416 kts 304°
2026-05-05 16:07 27.78493 43.71653 39913 ft 416 kts 304°
2026-05-05 16:07 27.82661 43.67109 39907 ft 416 kts 304°
2026-05-05 16:08 27.86767 43.62520 39913 ft 413 kts 302°
2026-05-05 16:08 27.90679 43.57788 39916 ft 411 kts 301°
2026-05-05 16:09 27.94561 43.53044 39917 ft 411 kts 301°
2026-05-05 16:09 27.98429 43.48351 39923 ft 410 kts 301°
2026-05-05 16:10 28.02325 43.43642 39930 ft 410 kts 301°
2026-05-05 16:10 28.06224 43.38931 39925 ft 410 kts 301°
2026-05-05 16:11 28.10121 43.34220 39932 ft 409 kts 301°
2026-05-05 16:12 28.17897 43.24800 39935 ft 409 kts 301°
2026-05-05 16:13 28.27604 43.13008 39944 ft 409 kts 301°
2026-05-05 16:13 28.31489 43.08281 39948 ft 410 kts 301°
2026-05-05 16:14 28.39258 42.98809 39950 ft 410 kts 301°
2026-05-05 16:15 28.47017 42.89327 39952 ft 409 kts 301°
2026-05-05 16:16 28.54765 42.79837 39952 ft 409 kts 301°
2026-05-05 16:17 28.60566 42.72716 39956 ft 409 kts 301°
2026-05-05 16:18 28.66353 42.65600 39958 ft 408 kts 301°
2026-05-05 16:19 28.72090 42.58516 39962 ft 407 kts 301°
2026-05-05 16:19 28.77839 42.51403 39967 ft 406 kts 301°
2026-05-05 16:20 28.85484 42.41926 39970 ft 405 kts 301°
2026-05-05 16:22 28.94182 42.31116 39983 ft 404 kts 301°
2026-05-05 16:23 29.01778 42.21651 39984 ft 404 kts 301°
2026-05-05 16:23 29.07470 42.14549 39982 ft 404 kts 301°
2026-05-05 16:24 29.11263 42.09816 39993 ft 404 kts 301°
2026-05-05 16:25 29.16951 42.02705 39996 ft 404 kts 300°
2026-05-05 16:25 29.22606 41.95620 39989 ft 404 kts 300°
2026-05-05 16:26 29.30167 41.86128 39996 ft 403 kts 300°
2026-05-05 16:27 29.33946 41.81376 39999 ft 403 kts 300°
2026-05-05 16:27 29.37718 41.76627 39998 ft 403 kts 300°
2026-05-05 16:28 29.41485 41.71878 40004 ft 402 kts 300°
2026-05-05 16:28 29.45250 41.67125 40007 ft 402 kts 300°
2026-05-05 16:29 29.49011 41.62373 40006 ft 402 kts 300°
2026-05-05 16:29 29.52769 41.57618 40007 ft 402 kts 300°
2026-05-05 16:30 29.56524 41.52861 40008 ft 402 kts 300°
2026-05-05 16:30 29.60279 41.48099 40012 ft 402 kts 300°
2026-05-05 16:31 29.64035 41.43329 40013 ft 402 kts 300°
2026-05-05 16:31 29.67790 41.38555 40009 ft 403 kts 300°
2026-05-05 16:32 29.71546 41.33775 40014 ft 403 kts 300°
2026-05-05 16:32 29.75436 41.29136 40018 ft 412 kts 305°
2026-05-05 16:33 29.79731 41.24752 40015 ft 413 kts 306°
2026-05-05 16:33 29.84051 41.20377 40016 ft 413 kts 306°
2026-05-05 16:34 29.88351 41.15988 40020 ft 413 kts 306°
2026-05-05 16:34 29.92642 41.11582 40021 ft 413 kts 306°
2026-05-05 16:35 29.96927 41.07173 40016 ft 413 kts 306°
2026-05-05 16:35 30.01212 41.02757 40023 ft 413 kts 306°
2026-05-05 16:36 30.05494 40.98341 40018 ft 413 kts 306°
2026-05-05 16:36 30.09773 40.93922 40024 ft 412 kts 306°
2026-05-05 16:37 30.14042 40.89507 40015 ft 412 kts 306°
2026-05-05 16:37 30.18308 40.85092 40020 ft 411 kts 306°
2026-05-05 16:38 30.22561 40.80683 40022 ft 410 kts 306°
2026-05-05 16:38 30.26803 40.76281 40026 ft 409 kts 306°
2026-05-05 16:39 30.31035 40.71883 40010 ft 409 kts 306°
2026-05-05 16:39 30.35254 40.67492 40025 ft 407 kts 306°
2026-05-05 16:40 30.39471 40.63104 40019 ft 407 kts 306°
2026-05-05 16:40 30.43718 40.58752 40021 ft 408 kts 306°
2026-05-05 16:41 30.47945 40.54438 40023 ft 408 kts 306°
2026-05-05 16:41 30.52198 40.50088 40020 ft 407 kts 306°
2026-05-05 16:42 30.56445 40.45732 40023 ft 408 kts 306°
2026-05-05 16:42 30.60692 40.41368 40021 ft 408 kts 306°
2026-05-05 16:43 30.64935 40.37003 40024 ft 408 kts 306°
2026-05-05 16:43 30.69181 40.32629 40022 ft 408 kts 306°
2026-05-05 16:44 30.73427 40.28251 40024 ft 408 kts 306°
2026-05-05 16:44 30.77671 40.23868 40020 ft 408 kts 306°
2026-05-05 16:45 30.81917 40.19479 40016 ft 408 kts 306°
2026-05-05 16:45 30.86160 40.15087 40016 ft 408 kts 306°
2026-05-05 16:46 30.90402 40.10691 40014 ft 408 kts 306°
2026-05-05 16:46 30.94638 40.06296 40009 ft 408 kts 306°
2026-05-05 16:47 30.98153 40.02645 40009 ft 407 kts 306°
2026-05-05 16:47 31.02375 39.98254 39998 ft 407 kts 306°
2026-05-05 16:48 31.06591 39.93864 40008 ft 406 kts 306°
2026-05-05 16:48 31.10801 39.89475 40000 ft 405 kts 306°
2026-05-05 16:49 31.15000 39.85092 39999 ft 405 kts 306°
2026-05-05 16:49 31.19197 39.80705 39997 ft 405 kts 306°
2026-05-05 16:50 31.23389 39.76316 39998 ft 405 kts 306°
2026-05-05 16:50 31.27579 39.71926 39997 ft 405 kts 306°
2026-05-05 16:51 31.31771 39.67527 39992 ft 405 kts 306°
2026-05-05 16:51 31.35960 39.63126 39990 ft 405 kts 306°
2026-05-05 16:52 31.40153 39.58716 39988 ft 405 kts 306°
2026-05-05 16:52 31.44345 39.54301 39988 ft 406 kts 306°
2026-05-05 16:53 31.48536 39.49869 39990 ft 406 kts 306°
2026-05-05 16:53 31.52734 39.45421 39992 ft 407 kts 306°
2026-05-05 16:54 31.56913 39.40988 39991 ft 408 kts 306°
2026-05-05 16:54 31.61127 39.36513 39995 ft 409 kts 306°
2026-05-05 16:55 31.65352 39.32021 39989 ft 410 kts 306°
2026-05-05 16:55 31.69579 39.27521 39990 ft 411 kts 306°
2026-05-05 16:56 31.73815 39.23005 39990 ft 411 kts 306°
2026-05-05 16:56 31.78051 39.18485 39988 ft 412 kts 307°
2026-05-05 16:57 31.82877 39.14566 39988 ft 434 kts 321°
2026-05-05 16:57 31.86511 39.12452 39995 ft 436 kts 322°
2026-05-05 16:58 31.91462 39.09614 39995 ft 436 kts 322°
2026-05-05 16:58 31.96888 39.06431 39987 ft 435 kts 321°
2026-05-05 16:59 32.02298 39.03223 39989 ft 435 kts 321°
2026-05-05 16:59 32.07711 39.00029 39986 ft 435 kts 322°
2026-05-05 17:00 32.13125 38.96845 39981 ft 435 kts 322°
2026-05-05 17:00 32.18532 38.93658 39987 ft 434 kts 322°
2026-05-05 17:01 32.23936 38.90466 39989 ft 434 kts 322°
2026-05-05 17:01 32.29333 38.87272 39984 ft 434 kts 322°
2026-05-05 17:02 32.34727 38.84076 39985 ft 434 kts 322°
2026-05-05 17:02 32.40122 38.80875 39984 ft 434 kts 322°
2026-05-05 17:03 32.45512 38.77673 39983 ft 434 kts 322°
2026-05-05 17:03 32.50904 38.74465 39977 ft 433 kts 322°
2026-05-05 17:04 32.56251 38.71280 39984 ft 433 kts 322°
2026-05-05 17:04 32.61643 38.68065 39981 ft 434 kts 322°
2026-05-05 17:05 32.67044 38.64846 39992 ft 434 kts 322°
2026-05-05 17:05 32.72445 38.61622 39991 ft 435 kts 322°
2026-05-05 17:06 32.77851 38.58389 39992 ft 435 kts 322°
2026-05-05 17:06 32.83256 38.55153 39992 ft 435 kts 322°
2026-05-05 17:07 32.88664 38.51910 39994 ft 435 kts 322°
2026-05-05 17:07 32.94067 38.48665 39999 ft 435 kts 322°
2026-05-05 17:08 32.99467 38.45419 39996 ft 435 kts 322°
2026-05-05 17:08 33.04866 38.42170 39994 ft 434 kts 322°
2026-05-05 17:09 33.10260 38.38918 39996 ft 434 kts 322°
2026-05-05 17:09 33.15640 38.35664 39995 ft 433 kts 322°
2026-05-05 17:10 33.21004 38.32385 39998 ft 433 kts 322°
2026-05-05 17:10 33.26364 38.29112 39990 ft 433 kts 322°
2026-05-05 17:11 33.31723 38.25840 39990 ft 432 kts 322°
2026-05-05 17:11 33.37072 38.22568 39991 ft 432 kts 322°
2026-05-05 17:12 33.42418 38.19292 39993 ft 432 kts 322°
2026-05-05 17:12 33.47767 38.16019 39993 ft 432 kts 322°
2026-05-05 17:13 33.53126 38.12771 39991 ft 432 kts 322°
2026-05-05 17:13 33.58447 38.09546 39990 ft 432 kts 322°
2026-05-05 17:14 33.63803 38.06290 39992 ft 431 kts 322°
2026-05-05 17:14 33.69155 38.03029 39991 ft 431 kts 322°
2026-05-05 17:15 33.74507 37.99763 39991 ft 432 kts 322°
2026-05-05 17:15 33.79861 37.96493 39989 ft 431 kts 323°
2026-05-05 17:16 33.85078 37.93033 39984 ft 419 kts 313°
2026-05-05 17:16 33.89154 37.88287 39993 ft 400 kts 298°
2026-05-05 17:17 33.92133 37.82745 39999 ft 393 kts 294°
2026-05-05 17:17 33.95011 37.77141 40006 ft 394 kts 294°
2026-05-05 17:18 33.97912 37.71534 39998 ft 395 kts 294°
2026-05-05 17:18 34.00833 37.65919 40006 ft 396 kts 294°
2026-05-05 17:19 34.03758 37.60297 40002 ft 396 kts 294°
2026-05-05 17:19 34.06689 37.54657 40001 ft 397 kts 294°
2026-05-05 17:20 34.09620 37.49008 40000 ft 398 kts 294°
2026-05-05 17:20 34.12553 37.43344 40005 ft 399 kts 294°
2026-05-05 17:21 34.15490 37.37665 40000 ft 399 kts 294°
2026-05-05 17:22 34.19893 37.29137 40005 ft 399 kts 294°
2026-05-05 17:22 34.23262 37.23796 40003 ft 409 kts 305°
2026-05-05 17:23 34.27227 37.18840 40003 ft 410 kts 306°
2026-05-05 17:23 34.31190 37.13885 40004 ft 410 kts 306°
2026-05-05 17:24 34.35138 37.08902 40009 ft 410 kts 306°
2026-05-05 17:24 34.39072 37.03913 40009 ft 410 kts 306°
2026-05-05 17:25 34.43004 36.98914 40007 ft 410 kts 306°
2026-05-05 17:25 34.46937 36.93908 40010 ft 410 kts 306°
2026-05-05 17:26 34.50867 36.88899 40015 ft 410 kts 306°
2026-05-05 17:26 34.54797 36.83881 40007 ft 410 kts 306°
2026-05-05 17:27 34.58727 36.78857 40011 ft 410 kts 306°
2026-05-05 17:27 34.62653 36.73830 40007 ft 410 kts 306°
2026-05-05 17:28 34.66577 36.68799 40012 ft 410 kts 306°
2026-05-05 17:28 34.70497 36.63766 40004 ft 410 kts 306°
2026-05-05 17:29 34.74414 36.58726 40008 ft 410 kts 306°
2026-05-05 17:29 34.78319 36.53690 40011 ft 409 kts 306°
2026-05-05 17:30 34.82225 36.48648 40008 ft 409 kts 306°
2026-05-05 17:30 34.86098 36.43639 40008 ft 409 kts 306°
2026-05-05 17:31 34.89987 36.38601 40008 ft 409 kts 306°
2026-05-05 17:31 34.93884 36.33547 40011 ft 409 kts 306°
2026-05-05 17:32 34.97788 36.28473 40020 ft 411 kts 306°
2026-05-05 17:32 35.01701 36.23379 39999 ft 411 kts 307°
2026-05-05 17:33 35.05594 36.18269 40019 ft 411 kts 307°
2026-05-05 17:33 35.09520 36.13169 40012 ft 413 kts 307°
2026-05-05 17:34 35.13451 36.08050 40019 ft 414 kts 307°
2026-05-05 17:34 35.17389 36.02898 40013 ft 415 kts 307°
2026-05-05 17:35 35.20515 35.98422 39993 ft 408 kts 294°
2026-05-05 17:35 35.21582 35.95259 40021 ft 401 kts 282°
2026-05-05 17:35 35.22047 35.91918 40010 ft 397 kts 270°
2026-05-05 17:36 35.21344 35.85258 40012 ft 396 kts 259°
2026-05-05 17:36 35.20292 35.78641 40003 ft 397 kts 259°
2026-05-05 17:37 35.20185 35.71971 40012 ft 399 kts 277°
2026-05-05 17:37 35.21883 35.65497 40008 ft 405 kts 293°
2026-05-05 17:38 35.24546 35.59403 40005 ft 407 kts 295°
2026-05-05 17:38 35.27250 35.53320 40000 ft 407 kts 295°
2026-05-05 17:39 35.29927 35.47212 40000 ft 407 kts 294°
2026-05-05 17:39 35.32585 35.41086 39997 ft 407 kts 294°
2026-05-05 17:40 35.35231 35.34958 39997 ft 407 kts 294°
2026-05-05 17:40 35.37873 35.28825 39998 ft 407 kts 294°
2026-05-05 17:41 35.40508 35.22697 39997 ft 406 kts 294°
2026-05-05 17:41 35.43138 35.16569 40002 ft 406 kts 294°
2026-05-05 17:42 35.45761 35.10446 40005 ft 405 kts 294°
2026-05-05 17:42 35.48380 35.04324 40007 ft 405 kts 294°
2026-05-05 17:43 35.50993 34.98204 40007 ft 405 kts 294°
2026-05-05 17:43 35.53601 34.92083 40006 ft 405 kts 294°
2026-05-05 17:44 35.56207 34.85957 40003 ft 405 kts 295°
2026-05-05 17:44 35.58809 34.79829 40009 ft 405 kts 295°
2026-05-05 17:45 35.61410 34.73691 40005 ft 405 kts 295°
2026-05-05 17:45 35.64008 34.67549 40004 ft 406 kts 295°
2026-05-05 17:46 35.66609 34.61389 39998 ft 406 kts 295°
2026-05-05 17:46 35.69193 34.55257 40002 ft 407 kts 295°
2026-05-05 17:47 35.71793 34.49076 39999 ft 407 kts 295°
2026-05-05 17:47 35.74392 34.42886 39994 ft 408 kts 295°
2026-05-05 17:48 35.76993 34.36679 39994 ft 408 kts 295°
2026-05-05 17:48 35.79594 34.30461 39991 ft 408 kts 295°
2026-05-05 17:49 35.82191 34.24240 39988 ft 409 kts 295°
2026-05-05 17:49 35.84789 34.18004 39988 ft 409 kts 295°
2026-05-05 17:50 35.87384 34.11767 39984 ft 409 kts 295°
2026-05-05 17:50 35.90020 34.05551 39982 ft 411 kts 300°
2026-05-05 17:51 35.93774 34.00198 39982 ft 417 kts 315°
2026-05-05 17:51 35.98606 33.96136 39985 ft 423 kts 324°
2026-05-05 17:52 36.03658 33.92410 39982 ft 423 kts 324°
2026-05-05 17:52 36.08698 33.88644 39975 ft 423 kts 324°
2026-05-05 17:53 36.13718 33.84839 39978 ft 423 kts 324°
2026-05-05 17:53 36.18730 33.81021 39983 ft 423 kts 324°
2026-05-05 17:54 36.23749 33.77196 39981 ft 423 kts 324°
2026-05-05 17:54 36.28758 33.73378 39990 ft 423 kts 324°
2026-05-05 17:55 36.33769 33.69564 39989 ft 422 kts 324°
2026-05-05 17:55 36.38769 33.65742 39981 ft 421 kts 323°
2026-05-05 17:56 36.43194 33.61097 39995 ft 416 kts 314°
2026-05-05 17:56 36.47397 33.56163 39996 ft 416 kts 313°
2026-05-05 17:57 36.51604 33.51235 40003 ft 415 kts 314°
2026-05-05 17:57 36.55825 33.46331 40004 ft 415 kts 314°
2026-05-05 17:58 36.60057 33.41428 40003 ft 416 kts 314°
2026-05-05 17:58 36.64287 33.36525 40016 ft 416 kts 314°
2026-05-05 17:59 36.68519 33.31613 40015 ft 416 kts 314°
2026-05-05 17:59 36.72747 33.26698 40026 ft 415 kts 314°
2026-05-05 18:00 36.76974 33.21776 40022 ft 416 kts 314°
2026-05-05 18:00 36.81205 33.16841 40028 ft 416 kts 314°
2026-05-05 18:01 36.85434 33.11900 40031 ft 416 kts 314°
2026-05-05 18:01 36.89662 33.06952 40029 ft 417 kts 314°
2026-05-05 18:02 36.93890 33.01998 40041 ft 416 kts 314°
2026-05-05 18:02 36.98110 32.97044 40036 ft 417 kts 314°
2026-05-05 18:03 37.02336 32.92076 40037 ft 417 kts 314°
2026-05-05 18:03 37.06556 32.87106 40040 ft 417 kts 314°
2026-05-05 18:04 37.10778 32.82126 40043 ft 417 kts 314°
2026-05-05 18:04 37.14971 32.77173 40039 ft 417 kts 314°
2026-05-05 18:05 37.19187 32.72184 40042 ft 417 kts 314°
2026-05-05 18:05 37.23399 32.67192 40040 ft 417 kts 314°
2026-05-05 18:06 37.27608 32.62195 40034 ft 416 kts 314°
2026-05-05 18:06 37.31814 32.57193 40039 ft 416 kts 315°
2026-05-05 18:07 37.36016 32.52189 40033 ft 416 kts 315°
2026-05-05 18:07 37.40212 32.47184 40034 ft 415 kts 315°
2026-05-05 18:08 37.44398 32.42182 40035 ft 415 kts 315°
2026-05-05 18:08 37.48582 32.37175 40037 ft 415 kts 315°
2026-05-05 18:09 37.52762 32.32164 40034 ft 414 kts 315°
2026-05-05 18:09 37.56933 32.27156 40035 ft 414 kts 315°
2026-05-05 18:10 37.61100 32.22144 40032 ft 414 kts 315°
2026-05-05 18:10 37.65263 32.17130 40041 ft 413 kts 315°
2026-05-05 18:11 37.69419 32.12116 40035 ft 413 kts 315°
2026-05-05 18:11 37.73568 32.07101 40033 ft 413 kts 315°
2026-05-05 18:12 37.77721 32.02074 40039 ft 413 kts 315°
2026-05-05 18:12 37.81871 31.97042 40046 ft 414 kts 315°
2026-05-05 18:13 37.86026 31.91996 40051 ft 414 kts 315°
2026-05-05 18:13 37.90181 31.86941 40041 ft 414 kts 315°
2026-05-05 18:14 37.94335 31.81880 40046 ft 414 kts 315°
2026-05-05 18:14 37.98487 31.76812 40039 ft 414 kts 315°
2026-05-05 18:15 38.02635 31.71741 40051 ft 414 kts 315°
2026-05-05 18:15 38.06778 31.66668 40042 ft 414 kts 315°
2026-05-05 18:16 38.10921 31.61585 40047 ft 414 kts 315°
2026-05-05 18:16 38.15064 31.56495 40042 ft 414 kts 315°
2026-05-05 18:17 38.19207 31.51396 40035 ft 414 kts 315°
2026-05-05 18:17 38.23313 31.46335 40035 ft 414 kts 315°
2026-05-05 18:18 38.27446 31.41232 40052 ft 414 kts 315°
2026-05-05 18:18 38.31575 31.36125 40053 ft 414 kts 315°
2026-05-05 18:19 38.35698 31.31017 40046 ft 414 kts 315°
2026-05-05 18:19 38.39820 31.25900 40038 ft 414 kts 315°
2026-05-05 18:20 38.43241 31.21648 40049 ft 413 kts 315°
2026-05-05 18:20 38.47350 31.16534 40052 ft 413 kts 315°
2026-05-05 18:21 38.51463 31.11404 40038 ft 413 kts 315°
2026-05-05 18:21 38.55564 31.06282 40072 ft 412 kts 315°
2026-05-05 18:22 38.59666 31.01149 40065 ft 413 kts 315°
2026-05-05 18:22 38.63774 30.96001 40058 ft 414 kts 315°
2026-05-05 18:23 38.67788 30.90961 40069 ft 414 kts 315°
2026-05-05 18:23 38.71891 30.85801 40070 ft 415 kts 315°
2026-05-05 18:24 38.76022 30.80596 40059 ft 415 kts 315°
2026-05-05 18:24 38.78669 30.77258 40074 ft 415 kts 315°
2026-05-05 18:25 38.82784 30.72060 40067 ft 415 kts 315°
2026-05-05 18:25 38.87255 30.67561 40059 ft 417 kts 330°
2026-05-05 18:26 38.92429 30.64192 40078 ft 417 kts 332°
2026-05-05 18:26 38.97633 30.60884 40078 ft 418 kts 332°
2026-05-05 18:27 39.02828 30.57533 40076 ft 418 kts 332°
2026-05-05 18:27 39.08010 30.54158 40071 ft 418 kts 332°
2026-05-05 18:28 39.15743 30.49098 40070 ft 417 kts 332°
2026-05-05 18:28 39.20917 30.45706 40080 ft 417 kts 332°
2026-05-05 18:29 39.26081 30.42315 40072 ft 416 kts 332°
2026-05-05 18:29 39.31241 30.38921 40077 ft 416 kts 332°
2026-05-05 18:30 39.36395 30.35526 40080 ft 415 kts 332°
2026-05-05 18:30 39.41539 30.32132 40091 ft 415 kts 332°
2026-05-05 18:31 39.46674 30.28737 40100 ft 415 kts 332°
2026-05-05 18:31 39.51860 30.25456 40085 ft 415 kts 335°
2026-05-05 18:32 39.57198 30.22616 40085 ft 415 kts 337°
2026-05-05 18:32 39.62562 30.19827 40087 ft 415 kts 336°
2026-05-05 18:33 39.67911 30.16998 40084 ft 415 kts 336°
2026-05-05 18:33 39.73249 30.14144 40083 ft 415 kts 336°
2026-05-05 18:34 39.78586 30.11281 40083 ft 415 kts 336°
2026-05-05 18:34 39.83925 30.08413 40086 ft 416 kts 336°
2026-05-05 18:35 39.89236 30.05555 40088 ft 416 kts 336°
2026-05-05 18:35 39.94584 30.02674 40086 ft 416 kts 336°
2026-05-05 18:36 39.99931 29.99786 40082 ft 416 kts 336°
2026-05-05 18:36 40.05276 29.96893 40095 ft 416 kts 336°
2026-05-05 18:37 40.10626 29.93990 40083 ft 416 kts 336°
2026-05-05 18:37 40.16007 29.91066 40079 ft 416 kts 336°
2026-05-05 18:38 40.21350 29.88158 40078 ft 416 kts 336°
2026-05-05 18:38 40.26696 29.85243 40077 ft 416 kts 336°
2026-05-05 18:39 40.32040 29.82325 40074 ft 416 kts 336°
2026-05-05 18:39 40.37377 29.79405 40076 ft 416 kts 336°
2026-05-05 18:40 40.42712 29.76480 40075 ft 416 kts 336°
2026-05-05 18:40 40.48010 29.73572 40076 ft 415 kts 336°
2026-05-05 18:41 40.53336 29.70642 40077 ft 415 kts 336°
2026-05-05 18:41 40.54996 29.69728 40072 ft 415 kts 336°
2026-05-05 18:42 40.59864 29.67045 40076 ft 414 kts 336°
2026-05-05 18:42 40.65160 29.64053 40072 ft 414 kts 332°
2026-05-05 18:43 40.69892 29.59782 40083 ft 413 kts 321°
2026-05-05 18:43 40.74360 29.55008 40079 ft 413 kts 321°
2026-05-05 18:44 40.78832 29.50241 40077 ft 413 kts 321°
2026-05-05 18:44 40.83315 29.45497 40079 ft 413 kts 321°
2026-05-05 18:45 40.87809 29.40750 40078 ft 414 kts 321°
2026-05-05 18:45 40.92303 29.35995 40075 ft 414 kts 321°
2026-05-05 18:46 40.96798 29.31230 40079 ft 414 kts 321°
2026-05-05 18:46 41.01297 29.26452 40076 ft 415 kts 321°
2026-05-05 18:47 41.05770 29.21693 40074 ft 415 kts 321°
2026-05-05 18:47 41.10271 29.16896 40077 ft 415 kts 321°
2026-05-05 18:48 41.14116 29.11676 40074 ft 417 kts 306°
2026-05-05 18:48 41.17326 29.05267 40072 ft 417 kts 304°
2026-05-05 18:49 41.20493 28.98818 40073 ft 417 kts 304°
2026-05-05 18:49 41.23679 28.92387 40081 ft 417 kts 304°
2026-05-05 18:50 41.26881 28.85956 40079 ft 417 kts 305°
2026-05-05 18:50 41.30082 28.79524 40069 ft 417 kts 305°
2026-05-05 18:51 41.33276 28.73092 40080 ft 416 kts 304°
2026-05-05 18:51 41.36460 28.66664 40074 ft 416 kts 304°
2026-05-05 18:52 41.39636 28.60240 40073 ft 415 kts 304°
2026-05-05 18:52 41.42805 28.53816 40073 ft 415 kts 304°
2026-05-05 18:53 41.45966 28.47395 40079 ft 414 kts 304°
2026-05-05 18:53 41.49150 28.41000 40076 ft 413 kts 308°
2026-05-05 18:54 41.53058 28.35435 40075 ft 411 kts 316°
2026-05-05 18:54 41.57168 28.30127 40083 ft 411 kts 316°
2026-05-05 18:55 41.61232 28.24835 40082 ft 411 kts 316°
2026-05-05 18:55 41.65306 28.19475 40081 ft 411 kts 316°
2026-05-05 18:56 41.69373 28.14099 40075 ft 411 kts 316°
2026-05-05 18:56 41.73437 28.08714 40079 ft 411 kts 316°
2026-05-05 18:57 41.77502 28.03320 40073 ft 411 kts 316°
2026-05-05 18:57 41.81564 27.97919 40068 ft 412 kts 316°
2026-05-05 18:58 41.85655 27.92468 40070 ft 412 kts 316°
2026-05-05 18:58 41.89719 27.87045 40066 ft 412 kts 316°
2026-05-05 18:59 41.93757 27.81646 40074 ft 412 kts 316°
2026-05-05 18:59 41.97822 27.76204 40068 ft 413 kts 316°
2026-05-05 19:00 42.01898 27.70765 40062 ft 413 kts 316°
2026-05-05 19:00 42.05976 27.65320 40057 ft 413 kts 316°
2026-05-05 19:01 42.10046 27.59872 40063 ft 413 kts 316°
2026-05-05 19:01 42.14119 27.54410 40059 ft 413 kts 316°
2026-05-05 19:02 42.18185 27.48943 40059 ft 413 kts 316°
2026-05-05 19:02 42.22252 27.43465 40061 ft 413 kts 316°
2026-05-05 19:03 42.26318 27.37977 40059 ft 414 kts 316°
2026-05-05 19:03 42.29945 27.33074 40060 ft 414 kts 316°
2026-05-05 19:04 42.34011 27.27567 40064 ft 414 kts 316°
2026-05-05 19:04 42.38074 27.22053 40056 ft 414 kts 316°
2026-05-05 19:05 42.42136 27.16530 40062 ft 414 kts 316°
2026-05-05 19:05 42.46192 27.11004 40060 ft 414 kts 316°
2026-05-05 19:06 42.50245 27.05471 40049 ft 414 kts 316°
2026-05-05 19:06 42.54265 26.99973 40049 ft 413 kts 316°
2026-05-05 19:07 42.57657 26.95325 40051 ft 413 kts 316°
2026-05-05 19:07 42.62348 26.88885 40047 ft 413 kts 316°
2026-05-05 19:08 42.65727 26.84237 40046 ft 412 kts 316°
2026-05-05 19:08 42.69727 26.78725 40051 ft 412 kts 316°
2026-05-05 19:09 42.73752 26.73167 40049 ft 412 kts 315°
2026-05-05 19:09 42.77773 26.67604 40050 ft 412 kts 315°
2026-05-05 19:10 42.81787 26.62040 40044 ft 412 kts 315°
2026-05-05 19:10 42.85805 26.56459 40042 ft 412 kts 315°
2026-05-05 19:11 42.89826 26.50864 40041 ft 413 kts 315°
2026-05-05 19:11 42.93848 26.45256 40039 ft 414 kts 315°
2026-05-05 19:12 42.97874 26.39631 40029 ft 414 kts 315°
2026-05-05 19:12 43.01897 26.33999 40037 ft 415 kts 315°
2026-05-05 19:13 43.05928 26.28343 40029 ft 415 kts 315°
2026-05-05 19:13 43.09962 26.22673 40026 ft 416 kts 315°
2026-05-05 19:14 43.13999 26.16988 40018 ft 417 kts 315°
2026-05-05 19:14 43.18036 26.11290 40021 ft 417 kts 315°
2026-05-05 19:15 43.22076 26.05577 40014 ft 417 kts 315°
2026-05-05 19:15 43.26111 25.99859 40019 ft 418 kts 315°
2026-05-05 19:16 43.30150 25.94124 40016 ft 417 kts 315°
2026-05-05 19:16 43.34179 25.88391 40011 ft 417 kts 315°
2026-05-05 19:17 43.38203 25.82654 40016 ft 417 kts 315°
2026-05-05 19:17 43.42222 25.76913 40008 ft 416 kts 315°
2026-05-05 19:18 43.46230 25.71175 40002 ft 415 kts 315°
2026-05-05 19:18 43.50228 25.65440 40002 ft 415 kts 315°
2026-05-05 19:19 43.54214 25.59710 40000 ft 414 kts 315°
2026-05-05 19:19 43.58168 25.54015 39995 ft 414 kts 315°
2026-05-05 19:20 43.62141 25.48281 39996 ft 413 kts 315°
2026-05-05 19:20 43.66113 25.42537 39997 ft 413 kts 315°
2026-05-05 19:21 43.70079 25.36790 39999 ft 413 kts 315°
2026-05-05 19:21 43.74043 25.31034 39998 ft 413 kts 315°
2026-05-05 19:22 43.78007 25.25265 39998 ft 414 kts 315°
2026-05-05 19:22 43.81971 25.19485 39998 ft 414 kts 314°
2026-05-05 19:23 43.85936 25.13692 40000 ft 414 kts 314°
2026-05-05 19:23 43.89901 25.07886 39995 ft 415 kts 314°
2026-05-05 19:24 43.93865 25.02070 39995 ft 415 kts 314°
2026-05-05 19:24 43.97832 24.96238 39993 ft 415 kts 314°
2026-05-05 19:25 44.01793 24.90402 39992 ft 415 kts 314°
2026-05-05 19:25 44.05752 24.84557 39996 ft 415 kts 314°
2026-05-05 19:26 44.09708 24.78704 39993 ft 415 kts 314°
2026-05-05 19:26 44.13663 24.72840 39990 ft 415 kts 314°
2026-05-05 19:27 44.17609 24.66978 39990 ft 415 kts 314°
2026-05-05 19:27 44.21552 24.61107 39993 ft 415 kts 314°
2026-05-05 19:28 44.25492 24.55228 39991 ft 415 kts 314°
2026-05-05 19:28 44.29429 24.49343 39991 ft 415 kts 314°
2026-05-05 19:29 44.33359 24.43454 39990 ft 414 kts 314°
2026-05-05 19:29 44.37288 24.37556 39989 ft 414 kts 314°
2026-05-05 19:30 44.41184 24.31694 39992 ft 414 kts 314°
2026-05-05 19:30 44.45105 24.25781 39993 ft 414 kts 314°
2026-05-05 19:31 44.49016 24.19871 39990 ft 414 kts 314°
2026-05-05 19:31 44.52923 24.13955 39990 ft 414 kts 313°
2026-05-05 19:32 44.56844 24.08005 39993 ft 414 kts 313°
2026-05-05 19:32 44.60748 24.02069 40000 ft 414 kts 313°
2026-05-05 19:33 44.64619 23.96170 39983 ft 414 kts 313°
2026-05-05 19:33 44.68538 23.90186 39999 ft 414 kts 313°
2026-05-05 19:34 44.72398 23.84277 40002 ft 413 kts 313°
2026-05-05 19:35 44.78227 23.75334 39994 ft 414 kts 313°
2026-05-05 19:35 44.82120 23.69343 39990 ft 414 kts 313°
2026-05-05 19:36 44.86002 23.63357 39991 ft 414 kts 313°
2026-05-05 19:36 44.89879 23.57367 40002 ft 414 kts 313°
2026-05-05 19:37 44.93749 23.51373 39993 ft 414 kts 313°
2026-05-05 19:37 44.97624 23.45360 40005 ft 413 kts 313°
2026-05-05 19:38 45.01449 23.39411 40017 ft 413 kts 313°
2026-05-05 19:38 45.05351 23.33328 40004 ft 413 kts 313°
2026-05-05 19:39 45.09196 23.27322 40012 ft 413 kts 313°
2026-05-05 19:39 45.13049 23.21291 40024 ft 413 kts 313°
2026-05-05 19:40 45.16894 23.15258 40025 ft 413 kts 312°
2026-05-05 19:40 45.20718 23.09245 40029 ft 413 kts 312°
2026-05-05 19:41 45.24557 23.03197 40041 ft 412 kts 312°
2026-05-05 19:41 45.28394 22.97137 40032 ft 413 kts 312°
2026-05-05 19:42 45.32235 22.91059 40021 ft 413 kts 312°
2026-05-05 19:42 45.36066 22.84982 40021 ft 413 kts 312°
2026-05-05 19:43 45.39893 22.78899 40024 ft 413 kts 312°
2026-05-05 19:43 45.43703 22.72830 40016 ft 413 kts 312°
2026-05-05 19:44 45.47562 22.66668 40006 ft 414 kts 312°
2026-05-05 19:44 45.51387 22.60548 40020 ft 414 kts 311°
2026-05-05 19:45 45.55213 22.54412 40010 ft 414 kts 311°
2026-05-05 19:45 45.59006 22.48315 40007 ft 414 kts 311°
2026-05-05 19:46 45.62872 22.42087 39989 ft 415 kts 311°
2026-05-05 19:46 45.66689 22.35926 39992 ft 414 kts 311°
2026-05-05 19:47 45.70506 22.29749 39984 ft 415 kts 311°
2026-05-05 19:47 45.74332 22.23545 39982 ft 415 kts 311°
2026-05-05 19:48 45.78157 22.17328 39972 ft 415 kts 311°
2026-05-05 19:48 45.81968 22.11120 39963 ft 416 kts 311°
2026-05-05 19:49 45.85762 22.04926 39966 ft 415 kts 311°
2026-05-05 19:49 45.89589 21.98663 39963 ft 415 kts 310°
2026-05-05 19:50 45.93378 21.92448 39962 ft 416 kts 310°
2026-05-05 19:50 45.97181 21.86197 39955 ft 416 kts 310°
2026-05-05 19:51 46.00980 21.79938 39954 ft 416 kts 310°
2026-05-05 19:51 46.04784 21.73657 39945 ft 416 kts 310°
2026-05-05 19:52 46.08588 21.67360 39944 ft 416 kts 310°
2026-05-05 19:52 46.12376 21.61077 39944 ft 416 kts 310°
2026-05-05 19:53 46.16172 21.54764 39933 ft 416 kts 310°
2026-05-05 19:53 46.19960 21.48452 39940 ft 416 kts 310°
2026-05-05 19:54 46.23743 21.42132 39942 ft 416 kts 310°
2026-05-05 19:54 46.27521 21.35807 39944 ft 416 kts 310°
2026-05-05 19:55 46.31295 21.29473 39932 ft 416 kts 310°
2026-05-05 19:55 46.34437 21.24190 39936 ft 416 kts 310°
2026-05-05 19:56 46.38212 21.17845 39936 ft 416 kts 310°
2026-05-05 19:56 46.42037 21.11554 39934 ft 416 kts 310°
2026-05-05 19:57 46.45872 21.05270 39923 ft 416 kts 310°
2026-05-05 19:57 46.49702 20.98966 39922 ft 416 kts 310°
2026-05-05 19:58 46.53524 20.92650 39918 ft 416 kts 310°
2026-05-05 19:58 46.57339 20.86327 39917 ft 416 kts 310°
2026-05-05 19:59 46.61152 20.79992 39917 ft 416 kts 310°
2026-05-05 19:59 46.64961 20.73648 39915 ft 416 kts 310°
2026-05-05 20:00 46.68770 20.67291 39913 ft 416 kts 310°
2026-05-05 20:00 46.72572 20.60930 39907 ft 416 kts 310°
2026-05-05 20:01 46.76373 20.54555 39910 ft 416 kts 310°
2026-05-05 20:01 46.80167 20.48177 39907 ft 416 kts 310°
2026-05-05 20:02 46.83957 20.41793 39910 ft 416 kts 309°
2026-05-05 20:02 46.87745 20.35396 39909 ft 416 kts 309°
2026-05-05 20:03 46.91534 20.28982 39909 ft 416 kts 309°
2026-05-05 20:03 46.95313 20.22569 39909 ft 416 kts 309°
2026-05-05 20:04 46.99086 20.16151 39913 ft 416 kts 309°
2026-05-05 20:04 47.02831 20.09766 39914 ft 416 kts 309°
2026-05-05 20:05 47.06610 20.03309 39908 ft 417 kts 309°
2026-05-05 20:05 47.10383 19.96846 39913 ft 417 kts 309°
2026-05-05 20:06 47.14150 19.90378 39909 ft 417 kts 309°
2026-05-05 20:06 47.17912 19.83902 39916 ft 417 kts 309°
2026-05-05 20:07 47.21658 19.77440 39914 ft 417 kts 309°
2026-05-05 20:07 47.25431 19.70916 39912 ft 417 kts 309°
2026-05-05 20:08 47.29179 19.64418 39918 ft 417 kts 309°
2026-05-05 20:08 47.32940 19.57882 39922 ft 417 kts 309°
2026-05-05 20:09 47.36696 19.51340 39931 ft 418 kts 309°
2026-05-05 20:09 47.40432 19.44815 39936 ft 418 kts 309°
2026-05-05 20:10 47.44189 19.38240 39941 ft 418 kts 309°
2026-05-05 20:10 47.47932 19.31672 39942 ft 418 kts 308°
2026-05-05 20:11 47.51674 19.25091 39939 ft 418 kts 308°
2026-05-05 20:11 47.55414 19.18496 39934 ft 418 kts 308°
2026-05-05 20:12 47.59146 19.11899 39929 ft 418 kts 308°
2026-05-05 20:12 47.62863 19.05314 39920 ft 418 kts 308°
2026-05-05 20:13 47.66594 18.98687 39918 ft 418 kts 308°
2026-05-05 20:13 47.70313 18.92064 39902 ft 418 kts 308°
2026-05-05 20:14 47.74006 18.85473 39903 ft 418 kts 308°
2026-05-05 20:14 47.77747 18.78780 39898 ft 418 kts 308°
2026-05-05 20:15 47.81708 18.72466 39887 ft 420 kts 319°
2026-05-05 20:15 47.86580 18.67634 39889 ft 422 kts 326°
2026-05-05 20:16 47.91557 18.63032 39880 ft 422 kts 326°
2026-05-05 20:16 47.96506 18.58403 39883 ft 421 kts 326°
2026-05-05 20:17 48.01452 18.53716 39878 ft 421 kts 325°
2026-05-05 20:17 48.06427 18.48971 39875 ft 421 kts 325°
2026-05-05 20:18 48.11329 18.44280 39872 ft 421 kts 325°
2026-05-05 20:18 48.16265 18.39548 39868 ft 421 kts 325°
2026-05-05 20:19 48.21205 18.34801 39874 ft 421 kts 325°
2026-05-05 20:19 48.26135 18.30053 39862 ft 422 kts 325°
2026-05-05 20:20 48.31076 18.25284 39861 ft 422 kts 325°
2026-05-05 20:20 48.35997 18.20522 39862 ft 422 kts 325°
2026-05-05 20:21 48.40939 18.15729 39855 ft 422 kts 324°
2026-05-05 20:21 48.45879 18.10927 39851 ft 422 kts 324°
2026-05-05 20:22 48.50808 18.06124 39862 ft 422 kts 324°
2026-05-05 20:22 48.55734 18.01313 39855 ft 422 kts 324°
2026-05-05 20:23 48.60657 17.96493 39863 ft 422 kts 324°
2026-05-05 20:23 48.65582 17.91660 39860 ft 422 kts 324°
2026-05-05 20:24 48.70504 17.86818 39852 ft 422 kts 324°
2026-05-05 20:24 48.75420 17.81970 39854 ft 421 kts 324°
2026-05-05 20:25 48.80328 17.77120 39849 ft 421 kts 324°
2026-05-05 20:25 48.85065 17.71955 39832 ft 416 kts 313°
2026-05-05 20:26 48.88572 17.65090 39818 ft 410 kts 296°
2026-05-05 20:26 48.91118 17.57396 39803 ft 410 kts 294°
2026-05-05 20:27 48.93632 17.49624 39803 ft 410 kts 294°
2026-05-05 20:27 48.96178 17.41873 39797 ft 410 kts 294°
2026-05-05 20:28 48.98742 17.34106 39600 ft 414 kts 294°
2026-05-05 20:28 49.00034 17.30186 39178 ft 413 kts 294°
2026-05-05 20:28 49.00902 17.27548 38814 ft 412 kts 294°
2026-05-05 20:28 49.02381 17.23033 38174 ft 411 kts 293°
2026-05-05 20:29 49.03609 17.19122 37553 ft 409 kts 292°
2026-05-05 20:29 49.04806 17.15207 36994 ft 406 kts 292°
2026-05-05 20:29 49.05987 17.11311 36426 ft 404 kts 292°
2026-05-05 20:29 49.07162 17.07431 35863 ft 403 kts 292°
2026-05-05 20:30 49.08338 17.03547 35259 ft 403 kts 292°
2026-05-05 20:30 49.09510 16.99685 34820 ft 399 kts 292°
2026-05-05 20:30 49.10671 16.95861 34371 ft 396 kts 292°
2026-05-05 20:30 49.11826 16.92058 33931 ft 393 kts 292°
2026-05-05 20:31 49.12972 16.88278 33464 ft 391 kts 292°
2026-05-05 20:31 49.14109 16.84525 32995 ft 388 kts 292°
2026-05-05 20:31 49.15234 16.80807 32577 ft 384 kts 292°
2026-05-05 20:31 49.16349 16.77115 32138 ft 381 kts 292°
2026-05-05 20:32 49.17456 16.73444 31726 ft 379 kts 292°
2026-05-05 20:32 49.18554 16.69795 31303 ft 377 kts 292°
2026-05-05 20:32 49.19642 16.66177 30888 ft 374 kts 292°
2026-05-05 20:32 49.20727 16.62562 30484 ft 372 kts 292°
2026-05-05 20:33 49.21804 16.58969 30077 ft 370 kts 292°
2026-05-05 20:33 49.22872 16.55400 29637 ft 369 kts 292°
2026-05-05 20:33 49.23935 16.51843 29183 ft 366 kts 292°
2026-05-05 20:33 49.24987 16.48318 28750 ft 363 kts 291°
2026-05-05 20:34 49.26028 16.44827 28331 ft 359 kts 291°
2026-05-05 20:34 49.27058 16.41366 27896 ft 357 kts 291°
2026-05-05 20:34 49.28082 16.37920 27452 ft 355 kts 291°
2026-05-05 20:34 49.29099 16.34491 27032 ft 353 kts 291°
2026-05-05 20:35 49.30098 16.31120 26617 ft 351 kts 291°
2026-05-05 20:35 49.31103 16.27723 26202 ft 350 kts 291°
2026-05-05 20:35 49.32104 16.24337 25798 ft 348 kts 291°
2026-05-05 20:35 49.33101 16.20956 25387 ft 347 kts 291°
2026-05-05 20:36 49.34093 16.17588 24979 ft 346 kts 291°
2026-05-05 20:36 49.35082 16.14228 24573 ft 346 kts 291°
2026-05-05 20:36 49.36070 16.10866 24161 ft 345 kts 291°
2026-05-05 20:36 49.37055 16.07508 23751 ft 345 kts 291°
2026-05-05 20:37 49.38038 16.04153 23319 ft 345 kts 291°
2026-05-05 20:37 49.38691 16.01926 22998 ft 345 kts 291°
2026-05-05 20:37 49.40003 15.97435 22400 ft 344 kts 291°
2026-05-05 20:37 49.40988 15.94102 21972 ft 342 kts 292°
2026-05-05 20:38 49.42052 15.90837 21560 ft 341 kts 294°
2026-05-05 20:38 49.43154 15.87623 21144 ft 340 kts 295°
2026-05-05 20:38 49.44264 15.84424 20748 ft 338 kts 295°
2026-05-05 20:38 49.45365 15.81243 20341 ft 337 kts 295°
2026-05-05 20:39 49.46458 15.78065 19935 ft 335 kts 295°
2026-05-05 20:39 49.47543 15.74897 19537 ft 334 kts 295°
2026-05-05 20:39 49.48618 15.71742 19136 ft 333 kts 295°
2026-05-05 20:39 49.49688 15.68593 18735 ft 332 kts 295°
2026-05-05 20:40 49.50755 15.65446 18340 ft 331 kts 295°
2026-05-05 20:40 49.51816 15.62309 17913 ft 330 kts 295°
2026-05-05 20:40 49.52871 15.59184 17470 ft 329 kts 295°
2026-05-05 20:40 49.53924 15.56065 17044 ft 327 kts 295°
2026-05-05 20:41 49.54955 15.53004 16636 ft 325 kts 295°
2026-05-05 20:41 49.55994 15.49917 16233 ft 323 kts 295°
2026-05-05 20:41 49.57024 15.46851 15833 ft 322 kts 295°
2026-05-05 20:41 49.58048 15.43801 15437 ft 319 kts 295°
2026-05-05 20:42 49.59065 15.40767 15049 ft 317 kts 295°
2026-05-05 20:42 49.60073 15.37757 14662 ft 315 kts 295°
2026-05-05 20:42 49.61075 15.34760 14273 ft 313 kts 295°
2026-05-05 20:42 49.62067 15.31791 13896 ft 311 kts 295°
2026-05-05 20:43 49.63058 15.28821 13493 ft 310 kts 295°
2026-05-05 20:43 49.64041 15.25869 13070 ft 309 kts 295°
2026-05-05 20:43 49.64704 15.23879 12787 ft 307 kts 295°
2026-05-05 20:43 49.65676 15.20957 12395 ft 305 kts 295°
2026-05-05 20:44 49.66638 15.18059 12008 ft 302 kts 295°
2026-05-05 20:44 49.67592 15.15188 11612 ft 300 kts 295°
2026-05-05 20:44 49.68540 15.12328 11244 ft 297 kts 295°
2026-05-05 20:44 49.69477 15.09497 10871 ft 295 kts 294°
2026-05-05 20:45 49.71545 15.04114 10144 ft 293 kts 305°
2026-05-05 20:45 49.72808 15.01668 9894 ft 287 kts 306°
2026-05-05 20:45 49.74052 14.99310 9689 ft 281 kts 306°
2026-05-05 20:46 49.75273 14.96954 9322 ft 280 kts 306°
2026-05-05 20:46 49.76472 14.94598 8976 ft 278 kts 305°
2026-05-05 20:46 49.77670 14.92219 8629 ft 276 kts 305°
2026-05-05 20:46 49.78826 14.89909 8294 ft 274 kts 305°
2026-05-05 20:47 49.79990 14.87579 7954 ft 273 kts 305°
2026-05-05 20:47 49.81143 14.85248 7613 ft 272 kts 305°
2026-05-05 20:47 49.82289 14.82923 7277 ft 271 kts 305°
2026-05-05 20:47 49.83446 14.80575 6936 ft 270 kts 305°
2026-05-05 20:48 49.84570 14.78292 6604 ft 269 kts 305°
2026-05-05 20:48 49.85701 14.75993 6278 ft 268 kts 305°
2026-05-05 20:48 49.86825 14.73710 6069 ft 262 kts 306°
2026-05-05 20:48 49.87912 14.71502 5936 ft 254 kts 305°
2026-05-05 20:49 49.88967 14.69356 5809 ft 246 kts 305°
2026-05-05 20:49 49.89985 14.67287 5728 ft 237 kts 305°
2026-05-05 20:49 49.90966 14.65292 5721 ft 229 kts 305°
2026-05-05 20:49 49.91917 14.63357 5704 ft 222 kts 305°
2026-05-05 20:50 49.92231 14.62718 5680 ft 219 kts 305°
2026-05-05 20:50 49.92814 14.61529 5616 ft 215 kts 305°
2026-05-05 20:50 49.93707 14.59707 5480 ft 211 kts 304°
2026-05-05 20:50 49.94592 14.57903 5278 ft 210 kts 305°
2026-05-05 20:51 49.95473 14.56104 5091 ft 209 kts 305°
2026-05-05 20:51 49.96352 14.54301 4890 ft 209 kts 305°
2026-05-05 20:51 49.97228 14.52498 4693 ft 209 kts 305°
2026-05-05 20:51 49.98105 14.50692 4488 ft 209 kts 305°
2026-05-05 20:52 49.98984 14.48890 4291 ft 209 kts 306°
2026-05-05 20:52 49.99883 14.47136 4156 ft 206 kts 307°
2026-05-05 20:52 50.00768 14.45379 3918 ft 206 kts 306°
2026-05-05 20:52 50.01623 14.43611 3632 ft 203 kts 305°
2026-05-05 20:53 50.02447 14.41894 3423 ft 193 kts 305°
2026-05-05 20:53 50.03226 14.40271 3186 ft 182 kts 306°
2026-05-05 20:53 50.03964 14.38733 2950 ft 172 kts 306°
2026-05-05 20:53 50.04657 14.37290 2765 ft 158 kts 306°
2026-05-05 20:54 50.05289 14.35976 2526 ft 145 kts 308°
2026-05-05 20:54 50.05878 14.34752 2351 ft 138 kts 308°
2026-05-05 20:54 50.06446 14.33572 2168 ft 136 kts 308°
2026-05-05 20:54 50.07003 14.32417 1968 ft 130 kts 307°
2026-05-05 20:55 50.07527 14.31325 1796 ft 123 kts 305°
2026-05-05 20:55 50.08048 14.30248 1632 ft 127 kts 306°
2026-05-05 20:55 50.08578 14.29144 1440 ft 125 kts 305°
2026-05-05 20:55 50.09089 14.28083 1282 ft 121 kts 305°
2026-05-05 20:56 50.09574 14.27063 1206 ft 104 kts 305°
2026-05-05 20:56 50.09881 14.26437 1201 ft 41 kts 307°
2026-05-05 20:56 50.10042 14.26106 1190 ft 38 kts 307°
2026-05-05 20:56 50.10191 14.25800 1187 ft 29 kts 310°
2026-05-05 20:57 50.10324 14.25671 1185 ft 19 kts 345°
2026-05-05 20:57 50.10453 14.25665 1181 ft 18 kts 11°
2026-05-05 20:57 50.10558 14.25742 1173 ft 12 kts 35°
2026-05-05 20:57 50.10622 14.25811 1171 ft 10 kts 34°
2026-05-05 20:58 50.10632 14.25872 1171 ft 6 kts 121°
2026-05-05 20:58 50.10606 14.25929 1171 ft 5 kts 123°
2026-05-05 20:58 50.10602 14.25938 1170 ft 0 kts 124°